Location: Chuathbaluk
(61.5726°N, 159.2454°W)
Time: 12:51:24
(UTC+00:00)

XW-2F - Pass Details

Date: 24 January 2021
Orbit: 500 x 520 km, 97.5° (Epoch: 01 March)

Event Time Altitude Azimuth Distance (km) Brightness Sun altitude
Rises 18:06:34 0° 14° (NNE) 2,664 ? -7.9°
Reaches altitude 10° 18:08:46 10° 6° (N) 1,772 ? -7.7°
Maximum altitude 18:12:18 37° 299° (WNW) 837 ? -7.3°
Drops below altitude 10° 18:15:48 10° 231° (SW) 1,763 ? -6.9°
Sets 18:18:00 0° 223° (SW) 2,646 ? -6.7°
